Everett, WA

9:01 AM PST on December 07, 2019 (GMT -0800)
Snohomish County

Weather History for KPAE - October, 2019

Change the Weather History Date:

Thursday, October 24, 2019

  Actual Average Record
Temperature  
Mean Temperature 50 °F -  
Max Temperature 57 °F 59 °F 80 °F (1992)
Min Temperature 44 °F 41 °F 31 °F (1958)
Degree Days  
Heating Degree Days 14    
Moisture  
Dew Point 45 °F    
Average Humidity 80    
Maximum Humidity 96    
Minimum Humidity 67    
Precipitation  
Precipitation 0.00 in - - ()
Sea Level Pressure  
Sea Level Pressure 30.37 in    
Wind  
Wind Speed 2 mph (ENE)    
Max Wind Speed 5 mph    
Max Gust Speed -    
Visibility 10 miles    
Events      
Averages and records for this station are not official NWS values.
T = Trace of Precipitation, MM = Missing Value Source: NWS Daily Summary

Daily Weather History Graph

Daily Weather History Graph

Search for Another Location

Airport or City:

Astronomy

Oct. 24, 2019 Rise Set
Actual Time 7:41 AM PDT 6:04 PM PDT
Civil Twilight 7:09 AM PDT 6:36 PM PDT
Nautical Twilight 6:33 AM PDT 7:12 PM PDT
Astronomical Twilight 5:57 AM PDT 7:48 PM PDT
Moon 2:51 AM PDT (10/24) 4:57 PM PDT (10/24)
Length of Visible Light 11h 26m
Length of Day
10h 22m
Waning Crescent, 16% of the Moon is Illuminated
Oct 24
Waning Crescent
Oct 27
New
Nov 4
First Quarter
Nov 12
Full
Nov 19
Last Quarter

Hourly Weather History & Observations

Time (PDT) Temp. Windchill Dew Point Humidity Pressure Visibility Wind Dir Wind Speed Gust Speed Precip Events Conditions
12:53 AM 44.1 °F - 42.1 °F 93% 30.44 in 7.0 mi Calm Calm - N/A   Clear
1:53 AM 45.0 °F - 43.0 °F 93% 30.43 in 8.0 mi Calm Calm - N/A   Clear
2:53 AM 44.1 °F - 43.0 °F 96% 30.45 in 7.0 mi Calm Calm - N/A   Clear
3:53 AM 45.0 °F 43.5 °F 43.0 °F 93% 30.44 in 9.0 mi ESE 3.5 mph - N/A   Clear
4:53 AM 46.0 °F 43.9 °F 43.0 °F 89% 30.43 in 10.0 mi East 4.6 mph - N/A   Mostly Cloudy
5:53 AM 46.9 °F - 43.0 °F 86% 30.42 in 10.0 mi Calm Calm - N/A   Overcast
6:53 AM 46.9 °F - 43.0 °F 86% 30.40 in 10.0 mi Calm Calm - N/A   Overcast
7:53 AM 46.0 °F 43.9 °F 44.1 °F 93% 30.40 in 10.0 mi South 4.6 mph - N/A   Overcast
8:53 AM 46.9 °F - 44.1 °F 90% 30.41 in 10.0 mi Calm Calm - N/A   Overcast
9:53 AM 48.9 °F - 45.0 °F 86% 30.41 in 10.0 mi SSE 4.6 mph - N/A   Overcast
10:53 AM 50.0 °F - 45.0 °F 83% 30.41 in 10.0 mi Calm Calm - N/A   Overcast
11:53 AM 54.0 °F - 45.0 °F 72% 30.40 in 10.0 mi ENE 3.5 mph - N/A   Overcast
12:53 PM 55.0 °F - 44.1 °F 67% 30.39 in 10.0 mi Calm Calm - N/A   Overcast
1:53 PM 55.9 °F - 46.0 °F 69% 30.37 in 10.0 mi North 4.6 mph - N/A   Overcast
2:53 PM 55.9 °F - 46.0 °F 69% 30.36 in 10.0 mi NW 4.6 mph - N/A   Overcast
3:53 PM 57.0 °F - 46.0 °F 67% 30.34 in 10.0 mi West 4.6 mph - N/A   Mostly Cloudy
4:53 PM 55.0 °F - 46.0 °F 72% 30.33 in 10.0 mi Calm Calm - N/A   Overcast
5:53 PM 55.9 °F - 46.0 °F 69% 30.32 in 10.0 mi North 3.5 mph - N/A   Overcast
6:53 PM 55.9 °F - 45.0 °F 67% 30.31 in 10.0 mi ESE 4.6 mph - N/A   Overcast
7:53 PM 54.0 °F - 46.0 °F 75% 30.31 in 10.0 mi North 3.5 mph - N/A   Overcast
8:53 PM 55.9 °F - 46.9 °F 72% 30.30 in 10.0 mi Calm Calm - N/A   Overcast
9:53 PM 54.0 °F - 46.9 °F 77% 30.29 in 10.0 mi North 3.5 mph - N/A   Overcast
10:53 PM 54.0 °F - 48.0 °F 80% 30.28 in 10.0 mi Calm Calm - N/A   Overcast
11:53 PM 54.0 °F - 46.9 °F 77% 30.26 in 10.0 mi ESE 4.6 mph - N/A   Mostly Cloudy